Météo par heure à Almachar

Ce jour, 13 Mai, Jeudi

Heure Température Précipitation Vent Pression Humidité
00:00 +15°C° 0 mm 4 m/s 738 mmHg 72%
01:00 +15°C° 0 mm 4 m/s 738 mmHg 74%
02:00 +14°C° 0 mm 4 m/s 737 mmHg 76%
03:00 +14°C° 0 mm 4 m/s 737 mmHg 78%
04:00 +14°C° 0 mm 4 m/s 737 mmHg 77%
05:00 +14°C° 0 mm 4 m/s 737 mmHg 76%
06:00 +14°C° 0 mm 4 m/s 737 mmHg 75%
07:00 +17°C° 0 mm 3 m/s 737 mmHg 65%
08:00 +19°C° 0 mm 3 m/s 737 mmHg 54%
09:00 +21°C° 0 mm 3 m/s 737 mmHg 43%
10:00 +22°C° 0 mm 3 m/s 737 mmHg 41%
11:00 +23°C° 0 mm 4 m/s 737 mmHg 38%
12:00 +25°C° 0 mm 4 m/s 737 mmHg 35%
13:00 +26°C° 0 mm 4 m/s 736 mmHg 36%
14:00 +26°C° 0 mm 5 m/s 736 mmHg 36%
15:00 +26°C° 0 mm 5 m/s 735 mmHg 36%
16:00 +26°C° 0 mm 5 m/s 735 mmHg 38%
17:00 +25°C° 0 mm 4 m/s 735 mmHg 40%
18:00 +25°C° 0 mm 4 m/s 735 mmHg 42%
19:00 +23°C° 0 mm 4 m/s 735 mmHg 46%
20:00 +21°C° 0 mm 3 m/s 735 mmHg 50%
21:00 +20°C° 0 mm 3 m/s 736 mmHg 54%
22:00 +19°C° 0 mm 3 m/s 736 mmHg 60%
23:00 +18°C° 0 mm 4 m/s 736 mmHg 65%

Demain, 14 Mai, Vendredi

Heure Température Précipitation Vent Pression Humidité
00:00 +17°C° 0 mm 4 m/s 736 mmHg 71%
01:00 +17°C° 0 mm 4 m/s 735 mmHg 73%
02:00 +17°C° 0 mm 4 m/s 735 mmHg 75%
03:00 +15°C° 0 mm 4 m/s 735 mmHg 77%
04:00 +15°C° 0 mm 4 m/s 735 mmHg 78%
05:00 +15°C° 0 mm 4 m/s 735 mmHg 79%
06:00 +15°C° 0 mm 4 m/s 735 mmHg 80%
07:00 +18°C° 0 mm 4 m/s 735 mmHg 69%
08:00 +20°C° 0 mm 4 m/s 736 mmHg 57%
09:00 +22°C° 0 mm 4 m/s 736 mmHg 45%
10:00 +23°C° 0 mm 4 m/s 736 mmHg 40%
11:00 +26°C° 0 mm 4 m/s 736 mmHg 35%
12:00 +27°C° 0 mm 5 m/s 736 mmHg 30%
13:00 +27°C° 0 mm 5 m/s 736 mmHg 29%
14:00 +28°C° 0 mm 4 m/s 735 mmHg 28%
15:00 +28°C° 0 mm 4 m/s 735 mmHg 28%
16:00 +27°C° 0 mm 4 m/s 735 mmHg 31%
17:00 +27°C° 0 mm 4 m/s 735 mmHg 34%
18:00 +26°C° 0 mm 4 m/s 735 mmHg 37%
19:00 +24°C° 0 mm 3 m/s 736 mmHg 40%
20:00 +22°C° 0 mm 3 m/s 736 mmHg 42%
21:00 +20°C° 0 mm 2 m/s 737 mmHg 45%
22:00 +20°C° 0 mm 2 m/s 737 mmHg 48%
23:00 +19°C° 0 mm 2 m/s 736 mmHg 51%

Après-demain, 15 Mai, Samedi

Heure Température Précipitation Vent Pression Humidité
00:00 +19°C° 0 mm 1 m/s 736 mmHg 54%
01:00 +19°C° 0 mm 1 m/s 736 mmHg 54%
02:00 +19°C° 0 mm 1 m/s 736 mmHg 53%
03:00 +19°C° 0 mm 1 m/s 736 mmHg 53%
04:00 +19°C° 0 mm 1 m/s 736 mmHg 52%
05:00 +19°C° 0 mm 1 m/s 736 mmHg 50%
06:00 +19°C° 0 mm 1 m/s 736 mmHg 49%
07:00 +21°C° 0 mm 1 m/s 737 mmHg 45%
08:00 +23°C° 0 mm 1 m/s 737 mmHg 41%
09:00 +25°C° 0 mm 1 m/s 737 mmHg 37%
10:00 +26°C° 0 mm 1 m/s 737 mmHg 35%
11:00 +28°C° 0 mm 2 m/s 737 mmHg 34%
12:00 +29°C° 0 mm 2 m/s 736 mmHg 32%
13:00 +29°C° 0 mm 2 m/s 736 mmHg 32%
14:00 +29°C° 0 mm 2 m/s 736 mmHg 32%
15:00 +30°C° 0 mm 2 m/s 735 mmHg 32%
16:00 +29°C° 0 mm 2 m/s 735 mmHg 35%
17:00 +28°C° 0 mm 2 m/s 735 mmHg 38%
18:00 +27°C° 0 mm 2 m/s 735 mmHg 41%
19:00 +26°C° 0 mm 2 m/s 735 mmHg 40%
20:00 +25°C° 0 mm 2 m/s 735 mmHg 40%
21:00 +24°C° 0 mm 2 m/s 735 mmHg 39%
22:00 +23°C° 0 mm 1 m/s 735 mmHg 39%
23:00 +23°C° 0 mm 1 m/s 735 mmHg 38%

16 Mai, Dimanche

Heure Température Précipitation Vent Pression Humidité
00:00 +23°C° 0 mm 1 m/s 735 mmHg 37%
01:00 +22°C° 0 mm 1 m/s 735 mmHg 38%
02:00 +21°C° 0 mm 2 m/s 735 mmHg 38%
03:00 +20°C° 0 mm 2 m/s 734 mmHg 39%
04:00 +21°C° 0 mm 2 m/s 734 mmHg 41%
05:00 +21°C° 0 mm 2 m/s 734 mmHg 43%
06:00 +21°C° 0 mm 2 m/s 734 mmHg 45%
07:00 +24°C° 0 mm 2 m/s 735 mmHg 42%
08:00 +26°C° 0 mm 2 m/s 735 mmHg 38%
09:00 +28°C° 0 mm 2 m/s 735 mmHg 34%
10:00 +30°C° 0 mm 2 m/s 735 mmHg 32%
11:00 +31°C° 0 mm 3 m/s 735 mmHg 29%
12:00 +33°C° 0 mm 3 m/s 735 mmHg 27%
13:00 +33°C° 0 mm 3 m/s 734 mmHg 26%
14:00 +33°C° 0 mm 3 m/s 734 mmHg 26%
15:00 +34°C° 0 mm 3 m/s 734 mmHg 25%
16:00 +33°C° 0 mm 3 m/s 733 mmHg 26%
17:00 +31°C° 0 mm 3 m/s 733 mmHg 28%
18:00 +31°C° 0 mm 3 m/s 733 mmHg 29%
19:00 +29°C° 0 mm 3 m/s 734 mmHg 30%
20:00 +28°C° 0 mm 3 m/s 734 mmHg 32%
21:00 +26°C° 0 mm 4 m/s 735 mmHg 33%
22:00 +25°C° 0 mm 4 m/s 734 mmHg 35%
23:00 +23°C° 0 mm 4 m/s 734 mmHg 38%

17 Mai, Lundi

Heure Température Précipitation Vent Pression Humidité
00:00 +23°C° 0 mm 4 m/s 734 mmHg 40%
01:00 +22°C° 0 mm 4 m/s 734 mmHg 43%
02:00 +22°C° 0 mm 4 m/s 734 mmHg 47%
03:00 +21°C° 0 mm 4 m/s 734 mmHg 50%
04:00 +21°C° 0 mm 4 m/s 734 mmHg 53%
05:00 +21°C° 0 mm 4 m/s 735 mmHg 56%
06:00 +21°C° 0 mm 4 m/s 735 mmHg 60%
07:00 +23°C° 0 mm 4 m/s 735 mmHg 54%
08:00 +26°C° 0 mm 4 m/s 735 mmHg 49%
09:00 +28°C° 0 mm 4 m/s 736 mmHg 44%
10:00 +28°C° 0 mm 4 m/s 736 mmHg 41%
11:00 +29°C° 0 mm 4 m/s 736 mmHg 38%
12:00 +30°C° 0 mm 4 m/s 736 mmHg 35%
13:00 +30°C° 0 mm 4 m/s 736 mmHg 37%
14:00 +29°C° 0 mm 4 m/s 737 mmHg 38%
15:00 +29°C° 0 mm 3 m/s 737 mmHg 40%
16:00 +28°C° 0 mm 3 m/s 737 mmHg 44%
17:00 +27°C° 0 mm 3 m/s 737 mmHg 47%
18:00 +25°C° 0 mm 2 m/s 737 mmHg 51%
19:00 +24°C° 0 mm 2 m/s 737 mmHg 53%
20:00 +23°C° 0 mm 2 m/s 738 mmHg 54%
21:00 +20°C° 0 mm 2 m/s 738 mmHg 56%
22:00 +20°C° 0 mm 2 m/s 738 mmHg 55%
23:00 +20°C° 0 mm 1 m/s 738 mmHg 54%

18 Mai, Mardi

Heure Température Précipitation Vent Pression Humidité
00:00 +20°C° 0 mm 1 m/s 739 mmHg 53%
01:00 +20°C° 0 mm 1 m/s 738 mmHg 52%
02:00 +19°C° 0 mm 1 m/s 738 mmHg 50%
03:00 +18°C° 0 mm 2 m/s 738 mmHg 48%
04:00 +18°C° 0 mm 2 m/s 739 mmHg 55%
05:00 +18°C° 0 mm 2 m/s 739 mmHg 62%
06:00 +17°C° 0 mm 2 m/s 740 mmHg 69%
07:00 +19°C° 0 mm 2 m/s 740 mmHg 67%
08:00 +20°C° 0 mm 2 m/s 740 mmHg 66%
09:00 +22°C° 0 mm 3 m/s 740 mmHg 65%
10:00 +24°C° 0 mm 3 m/s 741 mmHg 63%
11:00 +24°C° 0 mm 3 m/s 741 mmHg 61%
12:00 +25°C° 0 mm 3 m/s 741 mmHg 60%
13:00 +25°C° 0 mm 3 m/s 741 mmHg 60%
14:00 +25°C° 0 mm 3 m/s 741 mmHg 61%
15:00 +25°C° 0 mm 3 m/s 740 mmHg 61%
16:00 +25°C° 0 mm 3 m/s 740 mmHg 63%
17:00 +24°C° 0 mm 2 m/s 740 mmHg 66%
18:00 +23°C° 0 mm 2 m/s 740 mmHg 68%
19:00 +21°C° 0 mm 2 m/s 740 mmHg 74%
20:00 +20°C° 0 mm 2 m/s 740 mmHg 80%
21:00 +18°C° 0 mm 2 m/s 741 mmHg 86%
22:00 +18°C° 0 mm 2 m/s 741 mmHg 87%
23:00 +18°C° 0 mm 2 m/s 741 mmHg 88%
Voir plus

Nous avons besoin de votre consentement

Meteoprog et ses fournisseurs de services peuvent stocker et accéder à des données personnelles telles que des cookies, des identifiants d'appareils ou d'autres technologies similaires sur votre appareil et traiter ces données pour personnaliser le contenu et les publicités, ainsi que pour fournir des fonctionnalités de médias sociaux et analyser le trafic.

  • Stocker et/ou accéder à des informations sur votre appareil

    Des cookies, des identifiants d'appareils ou d'autres informations peuvent être stockés ou accessibles sur votre appareil aux fins indiquées ci-dessus.

  • Annonces et contenus personnalisés, mesure des annonces et des contenus, connaissance de l'audience et développement de produits

    Les annonces et le contenu peuvent être personnalisés en fonction d'un profil. D'autres données peuvent être ajoutées pour mieux personnaliser les annonces et le contenu. Les performances des publicités et du contenu peuvent être mesurées. Il est possible d'obtenir des informations sur le public qui a vu les publicités et le contenu. Ces données peuvent être utilisées pour développer ou améliorer l'expérience de l'utilisateur, les systèmes et les logiciels.

En cliquant sur "J'accepte", vous autorisez l'utilisation de cookies, des identifiants d'appareils, des balises web ou d'autres technologies similaires. Vos paramètres peuvent être modifiés dans le navigateur de votre appareil.

Dans certains cas, des intérêts légitimes peuvent être invoqués plutôt qu'un consentement. Vous pouvez en savoir plus à ce sujet dans notre Politique de confidentialité et de cookies.